| time (UTC) | temp C | wind direction | speed KPH | gust KPH | rain 1hr cm | rain 24hr cm | rain mn cm | humidity % | barometer mb |
| 20260504215008 | 22 | 175 | 4.8 | 25.7 | 0.00 | 0.00 | 0.00 | 52 | 1006.8 |
| 20260504214536 | 22 | 223 | 9.7 | 25.7 | 0.00 | 0.00 | 0.00 | 52 | 1006.8 |
| 20260504214003 | 22 | 315 | 3.2 | 14.5 | 0.00 | 0.00 | 0.00 | 54 | 1006.8 |
| 20260504213503 | 22 | 257 | 4.8 | 16.1 | 0.00 | 0.00 | 0.00 | 53 | 1006.7 |
| 20260504213007 | 22 | 173 | 8.0 | 16.1 | 0.00 | 0.00 | 0.00 | 53 | 1006.6 |
| 20260504212504 | 22 | 219 | 4.8 | 17.7 | 0.00 | 0.00 | 0.00 | 55 | 1006.8 |
| 20260504212003 | 21 | 179 | 6.4 | 19.3 | 0.00 | 0.00 | 0.00 | 56 | 1006.8 |
| 20260504211514 | 21 | 229 | 4.8 | 19.3 | 0.00 | 0.00 | 0.00 | 56 | 1006.8 |
| 20260504211003 | 21 | 288 | 6.4 | 16.1 | 0.00 | 0.00 | 0.00 | 56 | 1006.9 |
| 20260504210504 | 21 | 165 | 8.0 | 16.1 | 0.00 | 0.00 | 0.00 | 56 | 1006.5 |
| 20260504210021 | 21 | 238 | 4.8 | 16.1 | 0.00 | 0.00 | 0.00 | 54 | 1006.6 |
| 20260504205504 | 21 | 213 | 3.2 | 19.3 | 0.00 | 0.00 | 0.00 | 56 | 1007.1 |
| 20260504205008 | 21 | 205 | 6.4 | 19.3 | 0.00 | 0.00 | 0.00 | 57 | 1007.4 |
| 20260504204523 | 21 | 252 | 3.2 | 19.3 | 0.00 | 0.00 | 0.00 | 56 | 1007.6 |
| 20260504204010 | 21 | 209 | 6.4 | 19.3 | 0.00 | 0.00 | 0.00 | 55 | 1007.5 |
| 20260504203509 | 21 | 226 | 8.0 | 17.7 | 0.00 | 0.00 | 0.00 | 55 | 1007.9 |
| 20260504203007 | 21 | 200 | 4.8 | 25.7 | 0.00 | 0.00 | 0.00 | 56 | 1007.8 |
| 20260504202506 | 21 | 256 | 9.7 | 25.7 | 0.00 | 0.00 | 0.00 | 55 | 1007.6 |
| 20260504202004 | 21 | 331 | 4.8 | 12.9 | 0.00 | 0.00 | 0.00 | 58 | 1007.4 |
| 20260504201512 | 20 | 157 | 4.8 | 16.1 | 0.00 | 0.00 | 0.00 | 59 | 1007.5 |
| 20260504201003 | 20 | 290 | 6.4 | 16.1 | 0.00 | 0.00 | 0.00 | 60 | 1007.5 |
| 20260504200503 | 20 | 294 | 4.8 | 14.5 | 0.00 | 0.00 | 0.00 | 1007.5 | |
| 20260504200020 | 19 | 144 | 6.4 | 20.9 | 0.00 | 0.00 | 0.00 | 1007.5 | |
| 20260504195503 | 19 | 49 | 3.2 | 20.9 | 0.00 | 0.00 | 0.00 | 1007.5 | |
| 20260504195007 | 20 | 216 | 4.8 | 17.7 | 0.00 | 0.00 | 0.00 | 60 | 1007.6 |
| 20260504194522 | 20 | 165 | 6.4 | 17.7 | 0.00 | 0.00 | 0.00 | 60 | 1007.9 |
| 20260504194009 | 20 | 137 | 6.4 | 17.7 | 0.00 | 0.00 | 0.00 | 60 | 1007.9 |
| 20260504193511 | 20 | 252 | 4.8 | 20.9 | 0.00 | 0.00 | 0.00 | 59 | 1007.8 |
| 20260504193026 | 20 | 265 | 9.7 | 20.9 | 0.00 | 0.00 | 0.00 | 58 | 1008.0 |
| 20260504192512 | 20 | 200 | 6.4 | 20.9 | 0.00 | 0.00 | 0.00 | 59 | 1008.4 |
| 20260504192005 | 20 | 245 | 4.8 | 20.9 | 0.00 | 0.00 | 0.00 | 58 | 1008.4 |
| 20260504191513 | 21 | 268 | 6.4 | 20.9 | 0.00 | 0.00 | 0.00 | 56 | 1008.5 |
| 20260504191004 | 21 | 263 | 6.4 | 24.1 | 0.00 | 0.00 | 0.00 | 55 | 1008.6 |
| 20260504190506 | 21 | 265 | 9.7 | 24.1 | 0.00 | 0.00 | 0.00 | 55 | 1008.4 |
| 20260504190018 | 21 | 269 | 6.4 | 20.9 | 0.00 | 0.00 | 0.00 | 55 | 1008.4 |
| 20260504185504 | 21 | 273 | 9.7 | 20.9 | 0.00 | 0.00 | 0.00 | 54 | 1008.5 |
| 20260504185004 | 21 | 276 | 4.8 | 19.3 | 0.00 | 0.00 | 0.00 | 53 | 1008.3 |
| 20260504184528 | 21 | 264 | 3.2 | 20.9 | 0.00 | 0.00 | 0.00 | 54 | 1008.1 |
| 20260504184009 | 21 | 250 | 4.8 | 22.5 | 0.00 | 0.00 | 0.00 | 54 | 1008.2 |
| 20260504183512 | 21 | 247 | 9.7 | 25.7 | 0.00 | 0.00 | 0.00 | 54 | 1008.1 |
| 20260504183033 | 21 | 169 | 9.7 | 27.4 | 0.00 | 0.00 | 0.00 | 52 | 1008.1 |
| 20260504182507 | 21 | 258 | 11.3 | 27.4 | 0.00 | 0.00 | 0.00 | 52 | 1008.2 |
| 20260504182016 | 22 | 156 | 8.0 | 22.5 | 0.00 | 0.00 | 0.00 | 52 | 1007.9 |
| 20260504181531 | 22 | 209 | 8.0 | 22.5 | 0.00 | 0.00 | 0.00 | 52 | 1007.8 |
| 20260504181004 | 22 | 273 | 8.0 | 27.4 | 0.00 | 0.00 | 0.00 | 52 | 1007.9 |
| 20260504180504 | 22 | 281 | 12.9 | 25.7 | 0.00 | 0.00 | 0.00 | 50 | 1007.9 |
| 20260504180014 | 22 | 254 | 11.3 | 30.6 | 0.00 | 0.00 | 0.00 | 50 | 1007.8 |
| 20260504175504 | 22 | 139 | 11.3 | 30.6 | 0.00 | 0.00 | 0.00 | 50 | 1007.8 |
| 20260504175003 | 22 | 221 | 4.8 | 20.9 | 0.00 | 0.00 | 0.00 | 53 | 1007.7 |
| 20260504174516 | 22 | 132 | 4.8 | 25.7 | 0.00 | 0.00 | 0.00 | 53 | 1007.7 |
| 20260504174005 | 22 | 215 | 6.4 | 25.7 | 0.00 | 0.00 | 0.00 | 52 | 1007.9 |
| 20260504173506 | 22 | 279 | 8.0 | 24.1 | 0.00 | 0.00 | 0.00 | 50 | 1007.8 |
| 20260504173024 | 22 | 215 | 9.7 | 19.3 | 0.00 | 0.00 | 0.00 | 51 | 1007.8 |
| 20260504172512 | 22 | 247 | 8.0 | 27.4 | 0.00 | 0.00 | 0.00 | 53 | 1007.7 |
| 20260504172011 | 22 | 236 | 8.0 | 27.4 | 0.00 | 0.00 | 0.00 | 50 | 1007.8 |
| 20260504171526 | 22 | 210 | 6.4 | 22.5 | 0.00 | 0.00 | 0.00 | 52 | 1007.9 |
| 20260504171011 | 22 | 257 | 8.0 | 22.5 | 0.00 | 0.00 | 0.00 | 52 | 1007.9 |
| 20260504170513 | 21 | 219 | 6.4 | 22.5 | 0.00 | 0.00 | 0.00 | 53 | 1007.9 |
| 20260504151008 | 18 | 254 | 8.0 | 17.7 | 0.00 | 0.00 | 0.00 | 59 | 1009.0 |
| 20260504150504 | 18 | 171 | 4.8 | 12.9 | 0.00 | 0.00 | 0.00 | 61 | 1009.0 |
| 20260504141013 | 16 | 151 | 6.4 | 17.7 | 0.00 | 0.00 | 0.00 | 63 | 1009.3 |
| 20260504140508 | 15 | 205 | 4.8 | 17.7 | 0.00 | 0.00 | 0.00 | 63 | 1009.3 |
| 20260504130507 | 12 | 205 | 3.2 | 17.7 | 0.00 | 0.00 | 0.00 | 65 | 1009.7 |
| 20260504110504 | 9 | 164 | 4.8 | 14.5 | 0.00 | 0.00 | 0.00 | 69 | 1009.5 |
| 20260504100504 | 9 | 208 | 6.4 | 12.9 | 0.00 | 0.00 | 0.00 | 67 | 1009.9 |
| 20260504081528 | 10 | 157 | 3.2 | 12.9 | 0.00 | 0.00 | 0.00 | 64 | 1010.6 |
| 20260504081007 | 10 | 169 | 6.4 | 12.9 | 0.00 | 0.00 | 0.00 | 64 | 1010.6 |
| 20260504080519 | 10 | 138 | 4.8 | 16.1 | 0.00 | 0.00 | 0.00 | 64 | 1010.6 |
| 20260504050503 | 11 | 167 | 4.8 | 14.5 | 0.00 | 0.00 | 0.00 | 58 | 1012.1 |
| 20260504050006 | 11 | 188 | 4.8 | 14.5 | 0.00 | 0.00 | 0.00 | 58 | 1012.2 |
| 20260504045503 | 11 | 175 | 4.8 | 16.1 | 0.00 | 0.00 | 0.00 | 58 | 1012.2 |
| 20260504045005 | 11 | 150 | 6.4 | 16.1 | 0.00 | 0.00 | 0.00 | 58 | 1012.2 |
| 20260504044512 | 11 | 174 | 3.2 | 14.5 | 0.00 | 0.00 | 0.00 | 58 | 1012.3 |
| 20260504044006 | 11 | 223 | 4.8 | 14.5 | 0.00 | 0.00 | 0.00 | 58 | 1012.3 |
| 20260504043504 | 11 | 173 | 4.8 | 16.1 | 0.00 | 0.00 | 0.00 | 58 | 1012.3 |
| 20260504043016 | 11 | 158 | 4.8 | 16.1 | 0.00 | 0.00 | 0.00 | 58 | 1012.4 |
| 20260504042505 | 11 | 232 | 1.6 | 12.9 | 0.00 | 0.00 | 0.00 | 59 | 1012.5 |
| 20260504042005 | 11 | 185 | 4.8 | 12.9 | 0.00 | 0.00 | 0.00 | 59 | 1012.5 |
| 20260504041513 | 11 | 177 | 3.2 | 11.3 | 0.00 | 0.00 | 0.00 | 59 | 1012.5 |
| 20260504041005 | 11 | 250 | 4.8 | 11.3 | 0.00 | 0.00 | 0.00 | 59 | 1012.6 |
| 20260504040503 | 11 | 178 | 3.2 | 9.7 | 0.00 | 0.00 | 0.00 | 60 | 1012.7 |
| 20260504040004 | 11 | 213 | 3.2 | 9.7 | 0.00 | 0.00 | 0.00 | 60 | 1012.8 |
| 20260504035503 | 11 | 166 | 4.8 | 11.3 | 0.00 | 0.00 | 0.00 | 60 | 1012.8 |
| 20260504035004 | 11 | 171 | 6.4 | 11.3 | 0.00 | 0.00 | 0.00 | 60 | 1012.8 |
| 20260504034509 | 11 | 168 | 4.8 | 8.0 | 0.00 | 0.00 | 0.00 | 61 | 1012.8 |
| 20260504034003 | 10 | 205 | 3.2 | 11.3 | 0.00 | 0.00 | 0.00 | 61 | 1012.8 |
| 20260504033504 | 10 | 155 | 6.4 | 11.3 | 0.00 | 0.00 | 0.00 | 62 | 1012.9 |
| 20260504033013 | 10 | 165 | 4.8 | 11.3 | 0.00 | 0.00 | 0.00 | 63 | 1012.9 |
| 20260504032504 | 10 | 157 | 3.2 | 9.7 | 0.00 | 0.00 | 0.00 | 64 | 1012.9 |
| 20260504032006 | 10 | 169 | 3.2 | 9.7 | 0.00 | 0.00 | 0.00 | 65 | 1013.0 |
| 20260504031516 | 10 | 153 | 3.2 | 8.0 | 0.00 | 0.00 | 0.00 | 66 | 1013.0 |
| 20260504031007 | 10 | 190 | 4.8 | 8.0 | 0.00 | 0.00 | 0.00 | 66 | 1013.0 |
| 20260504030505 | 10 | 168 | 3.2 | 9.7 | 0.00 | 0.00 | 0.00 | 67 | 1013.1 |
| 20260504030018 | 10 | 153 | 3.2 | 9.7 | 0.00 | 0.00 | 0.00 | 67 | 1013.1 |
| 20260504025503 | 10 | 116 | 4.8 | 9.7 | 0.00 | 0.00 | 0.00 | 68 | 1013.2 |
| 20260504025006 | 10 | 134 | 3.2 | 6.4 | 0.00 | 0.00 | 0.00 | 69 | 1013.3 |
| 20260504024506 | 10 | 141 | 3.2 | 6.4 | 0.00 | 0.00 | 0.00 | 69 | 1013.3 |
| 20260504024004 | 10 | 159 | 3.2 | 8.0 | 0.00 | 0.00 | 0.00 | 69 | 1013.4 |
| 20260504023504 | 10 | 127 | 3.2 | 8.0 | 0.00 | 0.00 | 0.00 | 69 | 1013.4 |
| 20260504023011 | 10 | 131 | 3.2 | 6.4 | 0.00 | 0.00 | 0.00 | 69 | 1013.4 |
| 20260504022508 | 10 | 115 | 3.2 | 8.0 | 0.00 | 0.00 | 0.00 | 69 | 1013.4 |
| 20260504022004 | 10 | 137 | 4.8 | 8.0 | 0.00 | 0.00 | 0.00 | 69 | 1013.4 |
| 20260504021523 | 10 | 136 | 3.2 | 6.4 | 0.00 | 0.00 | 0.00 | 69 | 1013.4 |
| 20260504021005 | 10 | 140 | 3.2 | 6.4 | 0.00 | 0.00 | 0.00 | 69 | 1013.5 |
| 20260504020507 | 10 | 144 | 3.2 | 9.7 | 0.00 | 0.00 | 0.00 | 69 | 1013.5 |
| 20260504020025 | 10 | 117 | 3.2 | 9.7 | 0.00 | 0.00 | 0.00 | 69 | 1013.5 |
| 20260504015503 | 9 | 126 | 4.8 | 9.7 | 0.00 | 0.00 | 0.00 | 69 | 1013.4 |
| 20260504015006 | 9 | 117 | 4.8 | 11.3 | 0.00 | 0.00 | 0.00 | 69 | 1013.4 |
| 20260504014517 | 9 | 121 | 4.8 | 11.3 | 0.00 | 0.00 | 0.00 | 69 | 1013.4 |
| 20260504014002 | 9 | 117 | 4.8 | 11.3 | 0.00 | 0.00 | 0.00 | 70 | 1013.5 |
| 20260504013503 | 9 | 118 | 3.2 | 6.4 | 0.00 | 0.00 | 0.00 | 70 | 1013.5 |
| 20260504013006 | 9 | 137 | 3.2 | 9.7 | 0.00 | 0.00 | 0.00 | 70 | 1013.5 |
| 20260504012503 | 9 | 116 | 3.2 | 11.3 | 0.00 | 0.00 | 0.00 | 70 | 1013.5 |
| 20260504012003 | 9 | 124 | 6.4 | 11.3 | 0.00 | 0.00 | 0.00 | 70 | 1013.4 |
| 20260504011515 | 9 | 117 | 4.8 | 11.3 | 0.00 | 0.00 | 0.00 | 70 | 1013.5 |
| 20260504011007 | 9 | 134 | 3.2 | 6.4 | 0.00 | 0.00 | 0.00 | 70 | 1013.5 |
| 20260504010505 | 9 | 92 | 4.8 | 6.4 | 0.00 | 0.00 | 0.00 | 69 | 1013.6 |
| 20260504010016 | 9 | 110 | 3.2 | 9.7 | 0.00 | 0.00 | 0.00 | 69 | 1013.6 |
| 20260504005504 | 9 | 114 | 4.8 | 9.7 | 0.00 | 0.00 | 0.00 | 68 | 1013.5 |
| 20260504005008 | 9 | 103 | 4.8 | 9.7 | 0.00 | 0.00 | 0.00 | 68 | 1013.5 |
| 20260504004534 | 9 | 103 | 3.2 | 6.4 | 0.00 | 0.00 | 0.00 | 68 | 1013.5 |
| 20260504004004 | 10 | 121 | 3.2 | 9.7 | 0.00 | 0.00 | 0.00 | 67 | 1013.4 |
| 20260504003510 | 10 | 117 | 4.8 | 9.7 | 0.00 | 0.00 | 0.00 | 67 | 1013.4 |
| 20260504003005 | 10 | 113 | 3.2 | 9.7 | 0.00 | 0.00 | 0.00 | 67 | 1013.5 |
| 20260504002503 | 10 | 121 | 4.8 | 9.7 | 0.00 | 0.00 | 0.00 | 67 | 1013.6 |
| 20260504002003 | 9 | 117 | 3.2 | 9.7 | 0.00 | 0.00 | 0.00 | 67 | 1013.6 |
| 20260504001526 | 9 | 111 | 3.2 | 9.7 | 0.00 | 0.00 | 0.00 | 68 | 1013.5 |
| 20260504001004 | 9 | 102 | 4.8 | 9.7 | 0.00 | 0.00 | 0.00 | 68 | 1013.4 |
| 20260504000504 | 9 | 119 | 4.8 | 9.7 | 0.00 | 0.00 | 0.00 | 68 | 1013.4 |
| 20260504000016 | 9 | 119 | 4.8 | 9.7 | 0.00 | 0.00 | 0.00 | 70 | 1013.3 |
| 20260503235504 | 9 | 121 | 4.8 | 14.5 | 0.00 | 0.00 | 0.00 | 69 | 1013.4 |
| 20260503235005 | 9 | 121 | 6.4 | 14.5 | 0.00 | 0.00 | 0.00 | 70 | 1013.4 |
| 20260503234524 | 9 | 105 | 6.4 | 12.9 | 0.00 | 0.00 | 0.00 | 71 | 1013.4 |
| 20260503234005 | 9 | 109 | 4.8 | 12.9 | 0.00 | 0.00 | 0.00 | 71 | 1013.3 |
| 20260503233509 | 9 | 84 | 4.8 | 11.3 | 0.00 | 0.00 | 0.00 | 71 | 1013.3 |
| 20260503233022 | 9 | 82 | 6.4 | 11.3 | 0.00 | 0.00 | 0.00 | 72 | 1013.4 |
| 20260503232507 | 9 | 99 | 4.8 | 11.3 | 0.00 | 0.00 | 0.00 | 72 | 1013.5 |
| 20260503232007 | 9 | 102 | 4.8 | 11.3 | 0.00 | 0.00 | 0.00 | 72 | 1013.6 |
| 20260503231508 | 9 | 101 | 3.2 | 11.3 | 0.00 | 0.00 | 0.00 | 72 | 1013.7 |
| 20260503231004 | 9 | 124 | 6.4 | 11.3 | 0.00 | 0.00 | 0.00 | 73 | 1013.7 |
| 20260503230503 | 9 | 114 | 4.8 | 11.3 | 0.00 | 0.00 | 0.00 | 73 | 1013.8 |
| 20260503230012 | 9 | 124 | 4.8 | 11.3 | 0.00 | 0.00 | 0.00 | 73 | 1013.9 |
| 20260503225503 | 9 | 105 | 3.2 | 9.7 | 0.00 | 0.00 | 0.00 | 74 | 1014.0 |
| 20260503225005 | 9 | 134 | 3.2 | 9.7 | 0.00 | 0.00 | 0.00 | 74 | 1014.4 |
| 20260503224517 | 9 | 78 | 4.8 | 11.3 | 0.00 | 0.00 | 0.00 | 74 | 1014.5 |
| 20260503224008 | 9 | 90 | 6.4 | 11.3 | 0.00 | 0.00 | 0.00 | 74 | 1014.5 |
| 20260503223508 | 9 | 88 | 6.4 | 8.0 | 0.00 | 0.00 | 0.00 | 75 | 1014.7 |
| 20260503223023 | 9 | 91 | 4.8 | 6.4 | 0.00 | 0.00 | 0.00 | 74 | 1014.9 |
| 20260503222507 | 9 | 96 | 1.6 | 6.4 | 0.00 | 0.00 | 0.00 | 73 | 1015.2 |
| 20260503222007 | 9 | 90 | 3.2 | 6.4 | 0.00 | 0.00 | 0.00 | 72 | 1015.2 |
| 20260503221523 | 9 | 44 | 3.2 | 6.4 | 0.00 | 0.00 | 0.00 | 71 | 1015.0 |
| 20260503221007 | 10 | 75 | 3.2 | 4.8 | 0.00 | 0.00 | 0.00 | 71 | 1015.1 |
| 20260503220505 | 10 | 51 | 1.6 | 6.4 | 0.00 | 0.00 | 0.00 | 69 | 1015.3 |
| 20260503220020 | 10 | 27 | 3.2 | 6.4 | 0.00 | 0.00 | 0.00 | 68 | 1015.4 |
| 20260503215504 | 10 | 287 | 0.0 | 12.9 | 0.00 | 0.00 | 0.00 | 66 | 1015.7 |